McConnell AFB, KS

7:22 PM CDT on September 20, 2019 (GMT -0500)
McConnell Air Force Base

Weather History for KIAB - May, 2019

Change the Weather History Date:

Thursday, May 16, 2019

  Actual Average Record
Temperature  
Mean Temperature 74 °F -  
Max Temperature 87 °F 74 °F 91 °F (2001)
Min Temperature 63 °F 55 °F 44 °F (2011)
Cooling Degree Days 10    
Growing Degree Days 24 (Base 50)    
Moisture  
Dew Point 62 °F    
Average Humidity 66    
Maximum Humidity 90    
Minimum Humidity 40    
Precipitation  
Precipitation 0.00 in - - ()
Sea Level Pressure  
Sea Level Pressure 29.82 in    
Wind  
Wind Speed 15 mph (SSE)    
Max Wind Speed 28 mph    
Max Gust Speed 33 mph    
Visibility 10 miles    
Events      
Averages and records for this station are not official NWS values.
T = Trace of Precipitation, MM = Missing Value Source: NWS Daily Summary

Daily Weather History Graph

Daily Weather History Graph

Search for Another Location

Airport or City:

Astronomy

May. 16, 2019 Rise Set
Actual Time 6:18 AM CDT 8:32 PM CDT
Civil Twilight 5:49 AM CDT 9:01 PM CDT
Nautical Twilight 5:13 AM CDT 9:38 PM CDT
Astronomical Twilight 4:34 AM CDT 10:17 PM CDT
Moon 6:17 PM CDT (5/16) 5:13 AM CDT (5/16)
Length of Visible Light 15h 12m
Length of Day
14h 13m
Waxing Gibbous, 94% of the Moon is Illuminated
May 16
Waxing Gibbous
May 18
Full
May 26
Last Quarter
Jun 3
New
Jun 10
First Quarter

Hourly Weather History & Observations

Time (CDT) Temp. Heat Index Dew Point Humidity Pressure Visibility Wind Dir Wind Speed Gust Speed Precip Events Conditions
12:56 AM 71.1 °F - 61.9 °F 73% 29.90 in 10.0 mi SSE 13.8 mph - N/A   Clear
1:56 AM 69.6 °F - 61.0 °F 74% 29.89 in 10.0 mi SSE 13.8 mph - N/A   Clear
2:56 AM 68.0 °F - 60.1 °F 76% 29.87 in 10.0 mi SSE 11.5 mph - N/A   Clear
3:56 AM 64.6 °F - 60.3 °F 86% 29.86 in 10.0 mi SSE 8.1 mph - N/A   Clear
4:56 AM 63.9 °F - 60.6 °F 89% 29.86 in 10.0 mi SSE 9.2 mph - N/A   Clear
5:56 AM 64.0 °F - 60.6 °F 89% 29.86 in 10.0 mi SSE 9.2 mph - N/A   Clear
6:56 AM 64.0 °F - 61.0 °F 90% 29.88 in 10.0 mi SSE 9.2 mph - N/A   Clear
7:56 AM 67.1 °F - 61.7 °F 83% 29.88 in 10.0 mi South 12.7 mph - N/A   Clear
8:56 AM 72.0 °F - 62.1 °F 71% 29.88 in 10.0 mi South 19.6 mph 27.6 mph N/A   Clear
9:56 AM 75.2 °F - 63.5 °F 67% 29.86 in 10.0 mi South 15.0 mph 21.9 mph N/A   Clear
10:56 AM 79.3 °F - 64.8 °F 61% 29.86 in 10.0 mi South 17.3 mph - N/A   Clear
11:56 AM 82.2 °F 83.8 °F 64.4 °F 55% 29.84 in 10.0 mi SSE 21.9 mph 24.2 mph N/A   Clear
12:56 PM 84.2 °F 85.6 °F 64.0 °F 51% 29.82 in 10.0 mi SSE 23.0 mph 26.5 mph N/A   Clear
1:56 PM 86.2 °F 86.6 °F 61.7 °F 44% 29.81 in 10.0 mi SSE 27.6 mph 31.1 mph N/A   Partly Cloudy
2:56 PM 86.5 °F 86.1 °F 59.9 °F 40% 29.79 in 10.0 mi South 19.6 mph 27.6 mph N/A   Clear
3:56 PM 86.7 °F 87.0 °F 61.5 °F 43% 29.78 in 10.0 mi SSE 21.9 mph 28.8 mph N/A   Clear
4:56 PM 85.6 °F 86.1 °F 61.9 °F 45% 29.76 in 10.0 mi SSE 27.6 mph 33.4 mph N/A   Clear
7:56 PM 79.9 °F - 61.7 °F 54% 29.73 in 10.0 mi SSE 15.0 mph - N/A   Clear
8:56 PM 77.5 °F - 62.1 °F 59% 29.74 in 10.0 mi SSE 17.3 mph - N/A   Clear
9:56 PM 76.8 °F - 61.9 °F 60% 29.75 in 10.0 mi SSE 19.6 mph 26.5 mph N/A   Clear
10:56 PM 75.0 °F - 62.8 °F 66% 29.76 in 10.0 mi SSE 13.8 mph - N/A   Clear
11:56 PM 73.2 °F - 62.4 °F 69% 29.75 in 10.0 mi SSE 18.4 mph 25.3 mph N/A   Clear